Location: Poughquag
(41.6090°N, 73.6820°W)
Time: 16:35:27
(UTC-05:00)

Envisat - Pass Details

Date: 19 January 2020
Orbit: 764 x 766 km, 98.1° (Epoch: 24 February)

Event Time Altitude Azimuth Distance (km) Brightness Sun altitude
Rises 06:35:11 0° 13° (NNE) 3,241 6.2 -8.1°
Reaches altitude 10° 06:37:30 10° 15° (NNE) 2,310 5.4 -7.7°
Maximum altitude 06:42:37 81° 103° (ESE) 779 3.2 -6.8°
Drops below altitude 10° 06:47:41 10° 191° (S) 2,293 5.6 -5.9°
Sets 06:49:58 0° 192° (SSW) 3,214 6.4 -5.5°
